Weather History for KHPN - October, 2012

Change the Weather History Date:

Monday, October 1, 2012

  Actual Average Record
Temperature  
Mean Temperature 60 °F -  
Max Temperature 69 °F 64 °F 82 °F (1988)
Min Temperature 51 °F 47 °F 36 °F (1992)
Degree Days  
Heating Degree Days 6    
Growing Degree Days 10 (Base 50)    
Moisture  
Dew Point 48 °F    
Average Humidity 70    
Maximum Humidity 89    
Minimum Humidity 50    
Precipitation  
Precipitation 0.00 in - - ()
Sea Level Pressure  
Sea Level Pressure 29.87 in    
Wind  
Wind Speed 8 mph (West)    
Max Wind Speed 16 mph    
Max Gust Speed 23 mph    
Visibility 10 miles    
Events      
Averages and records for this station are not official NWS values.
T = Trace of Precipitation, MM = Missing Value Source: NWS Daily Summary

Daily Weather History Graph

Daily Weather History Graph

Search for Another Location

Airport or City:

Trip Planner

Search our weather history database for the weather conditions in past years. The results will help you decide how hot, cold, wet, or windy it might be!

Date:

Astronomy

Oct. 01, 2012 Rise Set
Actual Time 6:51 AM EDT 6:35 PM EDT
Civil Twilight 6:24 AM EDT 7:03 PM EDT
Nautical Twilight 5:52 AM EDT 7:35 PM EDT
Astronomical Twilight 5:20 AM EDT 8:07 PM EDT
Moon 7:10 PM EDT (10/1) 8:19 AM EDT (10/1)
Length of Visible Light 12h 38m
Length of Day
11h 44m
Full, 98% of the Moon is Illuminated
Oct 1
Full
Oct 8
Last Quarter
Oct 15
New
Oct 21
First Quarter
Oct 29
Full

Hourly Weather History & Observations

Time (EDT) Temp. Dew Point Humidity Pressure Visibility Wind Dir Wind Speed Gust Speed Precip Events Conditions
12:56 AM 53.1 °F 45.0 °F 74% 29.81 in 10.0 mi West 8.1 mph - N/A   Clear
1:56 AM 52.0 °F 45.0 °F 77% 29.81 in 10.0 mi WSW 5.8 mph - N/A   Clear
2:56 AM 52.0 °F 45.0 °F 77% 29.81 in 10.0 mi West 8.1 mph - N/A   Clear
3:56 AM 51.8 °F 44.6 °F 76% 29.81 in 10.0 mi West 8.1 mph - N/A   Clear
4:56 AM 51.8 °F 44.6 °F 76% 29.81 in 10.0 mi West 5.8 mph - N/A   Clear
5:56 AM 51.1 °F 45.0 °F 80% 29.82 in 10.0 mi West 8.1 mph - N/A   Clear
6:56 AM 51.8 °F 44.6 °F 76% 29.83 in 10.0 mi West 8.1 mph - N/A   Clear
7:56 AM 53.6 °F 44.6 °F 72% 29.84 in 10.0 mi West 9.2 mph - N/A   Clear
8:56 AM 57.2 °F 44.6 °F 63% 29.85 in 10.0 mi West 8.1 mph - N/A   Clear
9:56 AM 60.8 °F 46.4 °F 59% 29.87 in 10.0 mi WNW 11.5 mph 18.4 mph N/A   Partly Cloudy
10:56 AM 61.0 °F 46.9 °F 60% 29.87 in 10.0 mi West 12.7 mph 21.9 mph N/A   Partly Cloudy
11:56 AM 63.0 °F 48.0 °F 58% 29.87 in 10.0 mi WNW 16.1 mph 23.0 mph N/A   Partly Cloudy
12:56 PM 66.0 °F 50.0 °F 56% 29.86 in 10.0 mi WNW 11.5 mph 19.6 mph N/A   Partly Cloudy
1:56 PM 66.2 °F 48.2 °F 52% 29.86 in 10.0 mi WNW 13.8 mph 17.3 mph N/A   Partly Cloudy
2:56 PM 68.0 °F 48.9 °F 50% 29.86 in 10.0 mi West 10.4 mph - N/A   Partly Cloudy
3:56 PM 68.0 °F 50.0 °F 52% 29.86 in 10.0 mi WNW 9.2 mph - N/A   Clear
4:56 PM 66.2 °F 50.0 °F 56% 29.88 in 10.0 mi WNW 10.4 mph - N/A   Partly Cloudy
5:56 PM 66.0 °F 48.9 °F 54% 29.89 in 10.0 mi West 5.8 mph - N/A   Partly Cloudy
6:56 PM 59.0 °F 51.1 °F 75% 29.92 in 10.0 mi Calm Calm - N/A   Clear
7:56 PM 57.0 °F 52.0 °F 83% 29.94 in 10.0 mi Calm Calm - N/A   Clear
8:56 PM 55.0 °F 52.0 °F 89% 29.96 in 10.0 mi WNW 4.6 mph - N/A   Clear
9:56 PM 57.0 °F 52.0 °F 83% 29.96 in 10.0 mi Calm Calm - N/A   Clear
10:56 PM 55.9 °F 52.0 °F 87% 29.96 in 10.0 mi Calm Calm - N/A   Clear
11:56 PM 57.2 °F 53.6 °F 88% 29.97 in 10.0 mi NW 4.6 mph - N/A   Clear